Reflectivity
-20 -20 -20 -20 -20 -20 -20 -20 -20 -20 -20 -20 -20 -20 -20 -20 -20 -20 -20 -20 -20 -20 -20 -20 -20 -20 -20 -20 -20 -20 -8 -20 -20 -20 -20 -20 -20 -20 -20 -20 -20 -20 -20 -20
5 -20 -20 -20 -20 -20 -20 -20 -20 -20 -20 -20 -20 -20 -20 -20 -20 -20 -20 -20 -20 -20 -20 -20 -20 -20 -20 -20 -20 -20 -20 -20 13 -20 -20 -20 -20 -20 -20 -20 -20 -20 -20 -20
-20 -20 -20 -19 -20 -20 -20 -20 -20 -20 -20 -20 -20 -20 -20 -20 -20 -20 -20 -20 -20 -20 -20 -20 -20 -20 -20 -20 -20 -20 -20 -20 -6 -20 -20 -19 -14 -20 -20 -20 -20 -20 -20 -20
-16 -20 -20 -20 -20 -17 -5 -15 -20 -20 5 1 -20 -12 -20 -20 -20 -20 -20 -20 -20 -20 -20 -20 -20 -20 -20 -20 -20 -20 -20 -20 -20 -20 -20 2 -18 -20 -20 -20 -20 -20 -20 -20
-20 -20 -20 -20 -20 -20 -20 -20 -20 -20 -18 -18 -20 17 -20 -20 -20 -20 -20 -20 -20 2 -20 -20 -20 -20 -20 -20 -15 -20 -18 0 -20 -20 -15 -11 -20 -20 2 -15 -20 -20 -20 -20
-20 -20 -20 -20 -20 -20 -20 -20 -2 -1 -11 28 -20 11 -20 -20 -20 -20 -20 -20 -20 -20 -20 -20 -20 -20 -20 -20 -20 -15 -20 7 -9 -20 -20 -20 -20 -3 2 -16 -20 -20 -20 -20
-20 -20 -20 -20 -20 -20 -20 -13 23 10 8 -6 -20 -3 -20 -20 -20 -20 -20 -20 -20 -20 -6 -20 -20 -20 -20 -20 -20 -12 7 -11 -20 -20 -20 -20 -16 1 -15 -20 -20 -20 -19 -11
-16 -20 -20 -20 -20 -20 -20 -18 5 -6 -0 -20 -20 -19 -20 -20 -20 -20 -20 -20 -20 -20 -16 -20 -20 -20 -20 -20 -20 -20 -9 15 10 -12 -20 -20 5 2 -4 -4 -15 -20 -19 -20
18 -7 -20 -20 -20 -20 -20 1 -20 27 1 23 -20 -20 -20 -20 -20 -20 -20 -20 -20 -20 -20 -20 -18 -20 -20 -20 -20 -20 -7 12 1 20 8 -5 1 9 4 -19 -20 -20 -20 -15
35 35 19 -20 10 28 -14 -17 9 8 18 16 6 -20 -20 -20 -20 -20 -20 -20 -20 -20 -20 -20 -20 -20 -20 -18 -7 -3 6 12 -20 -20 -8 2 5 13 12 -18 -20 -20 -20 12
20 32 -13 -20 1 -20 17 3 15 20 27 7 -9 -20 -20 -20 -20 17 -8 -20 -20 -18 -12 -20 -13 -20 -13 8 6 -5 -10 14 -2 -17 -19 -2 -7 4 -1 -20 -20 5 8 15
-1 24 33 -14 -20 -18 20 -10 28 27 36 38 17 24 20 20 -18 16 13 5 10 13 -10 -20 -20 27 -14 3 4 10 -20 -8 16 16 -8 -16 2 7 8 -12 -20 -20 6 23
31 24 -2 -7 -19 20 18 34 24 24 24 11 26 33 29 34 21 17 11 -10 23 20 21 -4 31 32 11 -20 -20 -20 -20 -20 -20 -20 -19 -18 16 15 -4 -20 -1 13 27 -7
34 27 20 18 10 18 19 25 28 21 16 23 32 35 20 -11 -14 12 3 -8 -20 9 -20 4 11 0 -20 -20 -20 -20 -20 -20 -19 -20 -20 3 -4 -5 12 21 28 27 -5 -20
30 11 -17 -12 -8 -18 3 -9 -15 -20 11 22 13 3 -1 -20 5 3 11 -19 -20 -19 -20 -6 6 -11 -19 -19 -20 -20 -20 -20 -9 -1 -10 3 1 6 24 34 25 4 -17 -18
10 14 21 5 -12 -6 -1 6 4 -6 4 -13 -1 -17 -20 -11 12 -15 -20 -3 -20 -20 -20 -20 -20 -20 -19 -20 -20 -19 -17 10 25 17 24 18 21 28 30 28 10 15 11 -7
4 19 28 3 -20 5 -1 -18 7 16 15 14 12 1 -4 4 -16 -20 -20 -10 -20 -20 -20 -20 -20 -20 -20 -20 -11 -20 -20 -20 18 33 28 12 25 29 29 21 28 11 5 -18
-19 13 9 8 -15 -2 -20 -20 -20 -20 -15 3 4 -4 -4 2 -2 -7 -1 -20 -20 -20 -20 -20 -20 -20 -20 -20 -20 -20 -20 -16 -20 -1 24 16 21 29 20 9 25 -7 -20 -19
-20 -19 12 16 -20 -20 -20 -20 -20 -20 -20 -20 -20 -14 -20 20 18 21 -10 -20 -8 -20 -20 -20 -20 -20 -20 -20 -20 -20 -20 -18 -20 -12 -10 13 25 21 13 9 -19 -20 -20 -18
-20 -20 2 -0 3 -20 -20 -20 -20 -20 -20 -20 -20 -2 29 22 10 -19 3 -17 -7 -20 -20 -20 -20 -20 -20 -20 -20 -20 -20 -20 -20 -20 -20 -4 11 11 1 5 -20 -20 -15 -20
-13 23 21 7 13 -16 -20 -17 -15 -18 -20 -17 -2 -20 24 10 31 -8 -19 -19 -20 -20 -10 -20 -20 -20 -20 -20 -20 -1 -11 -16 -20 -20 -20 -20 -20 -20 -20 21 -9 -20 -13 -20
-20 11 21 21 12 9 -20 24 3 21 -20 -20 17 23 -10 -16 -20 -20 -20 -20 -20 -20 1 -11 -20 -20 -20 -20 -20 -20 23 17 9 -15 -20 -20 -20 -10 -5 24 -6 -20 -20 -20
-2 22 18 25 -5 -19 22 21 23 29 18 7 5 4 -4 -20 -20 -20 -20 -20 -20 -20 -20 -20 -20 -20 -20 -20 -20 -20 7 20 22 17 6 -20 -20 -18 17 26 -19 -20 -20 -20
4 -14 18 20 -4 -19 2 3 -20 18 18 35 21 -3 -11 -20 -18 -18 -20 -20 -20 -20 -20 -20 -20 -20 -20 -20 -20 -20 -20 -16 25 39 27 26 28 28 28 5 -17 -20 -20 -20
-20 -3 -19 -9 -6 -19 -20 -20 -20 11 25 -4 14 -20 -20 -20 -20 -10 -20 -20 -20 -20 -20 -20 -20 -20 -20 -20 -20 -20 -20 -4 26 22 26 27 22 11 4 1 -18 -20 -20 -20
-20 -20 -20 -20 -20 -20 -20 -20 -20 -10 21 8 -20 -20 -20 -20 -20 -20 -20 -20 -20 -20 -20 -20 -20 -20 -20 -20 -20 -20 -19 31 31 21 10 -7 4 -3 -20 -20 -20 -20 -20 -20
Wind_Speed
7 11 16 16 17 20 19 18 22 19 17 16 22 21 18 10 6 8 9 8 11 23 23 25 25 21 24 22 19 19 17 13 10 9 9 7 8 7 5 5 7 6 5 5
11 25 19 17 20 23 23 24 25 22 17 14 19 27 22 11 9 8 11 10 10 13 22 23 24 21 24 26 22 19 17 13 10 8 6 5 8 4 5 4 6 6 6 5
19 21 17 20 21 23 22 24 20 20 15 18 18 27 21 13 8 8 9 10 11 16 23 24 24 25 25 26 26 23 20 17 11 9 7 6 6 6 4 4 4 4 6 6
22 15 19 19 26 16 22 17 21 21 16 18 4 16 30 15 18 18 10 10 15 14 22 26 24 23 26 25 23 24 24 22 14 11 10 15 9 11 5 6 5 5 6 5
33 16 16 22 23 15 24 14 20 20 4 7 21 5 29 4 16 12 12 12 12 14 24 26 30 28 25 26 24 21 22 21 18 14 15 12 10 5 7 8 9 8 5 6
31 13 15 27 22 20 19 20 9 6 4 9 31 7 16 18 17 13 13 18 18 12 19 27 28 24 22 21 21 21 22 19 13 17 16 13 12 12 11 10 8 6 5 4
25 35 28 25 21 24 21 13 5 5 8 13 16 8 21 26 9 17 14 18 16 15 16 23 25 24 25 26 24 22 23 20 15 15 15 10 13 14 13 12 9 10 6 4
17 19 29 17 31 22 10 18 11 15 9 14 12 13 20 11 20 27 29 18 16 15 17 26 30 27 26 26 25 24 23 21 17 13 11 12 13 9 9 9 9 6 7 6
11 27 19 12 20 21 31 18 21 14 21 12 14 17 15 13 12 19 0 8 10 7 14 26 22 21 23 23 23 24 22 19 16 16 13 13 11 10 8 9 10 8 8 7
3 6 17 18 16 15 13 5 11 13 14 14 9 13 6 9 12 14 16 11 12 10 11 17 18 18 14 16 16 19 18 18 17 16 15 10 10 10 9 10 11 9 8 8
8 6 6 6 5 10 8 9 3 6 7 7 5 5 3 5 3 8 11 15 14 10 7 12 12 17 18 18 16 15 17 17 16 16 13 14 10 9 9 9 9 10 9 8
2 4 5 4 13 4 1 1 4 3 6 0 2 3 1 4 7 6 9 11 14 8 8 8 9 11 15 17 17 15 15 17 16 15 15 13 12 10 10 10 10 10 9 9
7 5 4 8 2 11 6 4 7 3 4 5 5 3 1 4 4 2 1 2 4 7 10 11 7 9 13 15 13 15 15 16 14 15 16 14 12 11 11 10 10 10 10 10
7 6 4 4 6 4 5 11 9 3 3 6 4 4 8 9 5 7 7 7 6 5 10 12 10 11 14 15 14 14 15 14 15 16 16 15 12 10 10 10 10 9 11 10
5 6 9 14 17 12 12 16 9 8 9 8 16 13 11 3 6 11 14 9 8 8 14 14 15 11 10 11 12 14 15 14 15 15 15 14 10 10 10 10 10 10 11 10
5 6 5 5 14 13 17 14 13 13 13 16 16 19 15 11 12 10 14 10 7 8 12 15 18 19 18 18 16 15 15 15 16 14 12 14 13 10 10 10 9 9 9 9
1 5 6 8 5 8 6 14 13 12 13 8 9 17 17 16 16 12 10 10 9 8 12 17 18 19 18 17 16 18 18 17 16 14 13 13 14 12 10 10 10 10 8 9
10 11 11 12 7 9 9 8 12 10 12 10 12 12 16 14 22 7 7 11 9 8 11 15 14 14 15 15 16 15 14 15 15 15 15 14 13 12 9 10 11 9 8 10
20 14 6 5 4 9 13 8 4 11 14 11 9 7 7 16 5 3 4 3 8 8 8 11 16 16 16 17 16 16 16 15 16 16 16 16 15 13 11 12 12 9 10 8
19 18 11 3 5 7 1 6 6 9 9 13 3 6 8 14 2 5 5 7 6 6 4 13 16 17 17 17 19 19 17 16 15 14 14 16 14 12 12 12 12 9 9 8
2 3 12 10 9 7 8 14 10 5 5 15 12 6 5 5 5 1 3 3 4 3 5 7 18 19 18 19 18 15 15 15 14 15 13 13 12 12 12 10 10 10 10 10
6 2 3 3 5 7 17 18 8 8 15 10 6 4 4 1 5 6 6 5 4 5 4 4 7 12 16 17 17 18 18 14 18 16 15 14 13 10 10 12 10 11 11 11
4 4 4 2 4 3 6 11 5 8 9 9 11 9 4 2 3 5 5 3 5 6 4 4 8 11 10 13 14 16 13 18 17 18 16 15 14 12 11 11 12 10 10 9
3 8 4 10 7 14 11 9 13 15 14 13 11 7 10 8 8 7 4 4 6 5 7 8 7 11 10 11 13 13 13 15 14 16 17 14 13 12 12 9 9 9 9 9
5 8 6 7 9 15 5 13 13 16 17 16 6 4 7 8 10 7 8 8 8 8 7 8 8 8 11 12 13 13 15 17 13 11 11 12 11 13 11 9 8 8 7 9
4 9 7 10 10 8 15 13 21 12 13 19 16 4 7 10 12 8 5 8 10 9 10 9 10 9 9 12 14 14 15 15 16 13 11 11 10 10 9 9 3 9 11 12
Wind_Direction
245 224 222 211 216 235 246 260 268 271 278 288 284 285 278 270 223 229 242 218 188 186 181 173 176 169 147 153 157 157 152 155 143 146 153 140 140 128 121 125 125 122 107 95
244 250 229 226 233 237 234 244 254 266 259 247 276 281 275 258 254 222 206 215 201 174 166 173 175 164 158 155 155 154 153 154 150 154 156 149 137 123 126 119 119 123 106 116
231 243 223 240 247 252 261 257 270 271 277 266 271 274 281 267 269 245 234 213 198 180 174 175 176 168 160 160 159 157 154 155 157 154 148 127 111 113 113 129 123 130 114 103
251 259 248 253 255 247 255 254 265 268 279 273 61 280 277 274 277 277 277 229 220 189 182 177 173 167 166 165 158 156 156 157 159 169 164 162 156 158 155 149 138 124 114 106
242 233 236 251 249 246 259 280 267 268 194 16 276 229 278 209 261 258 256 250 232 207 184 183 177 171 168 160 160 155 156 161 165 164 157 157 157 165 137 138 132 128 121 115
257 255 242 249 263 265 271 279 296 300 149 235 257 206 277 265 252 247 243 249 258 239 203 183 175 161 160 156 155 152 157 165 164 153 156 158 153 148 144 147 142 140 131 125
244 252 253 251 264 265 261 264 258 237 208 243 262 200 233 268 258 247 258 260 258 254 192 171 166 164 158 161 161 155 157 163 156 154 157 145 148 150 150 150 150 146 139 132
229 258 237 218 218 238 236 234 232 250 240 253 248 230 252 250 251 255 267 277 262 251 176 167 170 167 161 161 157 154 157 153 154 146 138 142 144 149 152 148 145 133 135 127
275 249 265 254 222 217 244 233 244 256 262 268 254 267 305 321 13 359 328 49 8 23 166 160 163 161 154 157 159 155 154 153 149 134 132 136 139 139 142 123 115 121 125 115
255 262 274 281 290 287 264 264 241 230 241 245 245 255 238 36 7 11 12 17 18 27 107 140 148 148 140 142 144 150 146 146 136 129 128 120 120 121 125 118 118 120 114 113
4 279 288 11 227 274 246 281 321 260 203 208 228 237 86 92 40 5 7 20 28 24 73 134 140 144 144 145 146 140 138 136 132 131 121 118 121 114 108 112 117 112 111 115
59 279 295 253 296 280 132 138 287 253 253 191 206 210 293 33 34 1 13 6 1 22 56 89 108 130 131 135 143 136 138 137 138 130 117 116 115 117 116 121 124 124 129 120
18 315 333 307 101 26 35 355 340 275 244 181 222 216 65 284 271 286 360 138 349 18 92 88 77 122 134 141 134 136 137 136 132 124 122 125 126 133 133 134 135 126 130 111
277 223 240 244 315 304 299 313 317 45 278 11 257 267 272 254 215 291 300 286 212 196 129 132 133 142 150 147 135 135 139 137 135 133 134 135 138 139 142 141 129 147 127 121
331 256 233 231 264 271 287 301 311 301 263 263 275 275 283 232 192 226 227 238 229 205 146 150 143 147 155 141 138 140 136 135 139 139 145 137 130 131 145 137 145 149 131 135
349 320 331 301 259 262 250 255 275 270 272 261 258 269 264 280 265 209 204 205 232 201 167 164 158 156 163 160 155 148 144 141 137 134 138 131 132 143 152 147 158 139 133 147
280 288 321 267 314 298 251 235 230 249 247 251 280 277 277 269 254 242 206 205 215 215 188 166 169 168 163 163 156 157 153 146 143 142 144 140 139 157 152 158 142 127 126 120
227 229 259 283 297 244 247 238 238 251 265 227 241 265 295 262 247 199 208 201 210 221 175 169 168 157 165 150 150 147 147 145 146 147 150 144 150 157 156 141 126 127 129 125
216 225 238 231 237 275 281 275 232 269 274 241 255 277 277 301 299 350 36 333 205 184 170 171 166 155 153 151 150 146 152 153 155 160 155 158 158 161 152 145 137 139 132 132
215 220 218 207 218 245 128 339 54 2 273 13 283 54 4 235 120 263 7 7 46 49 116 138 145 143 149 158 158 156 158 159 166 161 157 150 154 157 152 143 145 143 140 139
308 266 221 233 241 286 0 347 297 183 303 344 351 8 78 29 299 290 92 44 58 39 3 128 150 162 166 159 152 152 159 166 151 145 145 146 151 146 141 138 145 143 146 147
279 283 213 236 216 264 3 349 353 328 319 337 318 324 45 291 325 307 313 123 85 57 16 12 134 152 153 154 151 160 165 156 146 145 145 151 152 153 151 146 153 156 154 147
286 355 301 282 265 302 317 284 267 259 291 335 305 266 187 66 304 271 302 193 127 106 81 54 124 122 145 154 152 153 153 139 145 146 155 153 147 145 147 161 161 161 161 157
276 293 312 328 343 313 318 330 345 337 329 259 257 13 358 317 264 279 276 165 136 128 116 115 126 136 130 137 142 134 140 134 148 146 144 144 147 155 167 164 169 169 172 163
261 316 295 302 284 304 320 328 330 332 318 321 298 27 358 342 348 221 206 157 139 123 123 126 134 142 131 127 126 135 140 136 141 138 144 148 155 166 161 164 170 176 173 173
233 254 269 275 295 304 320 323 308 310 313 286 291 355 10 9 341 315 214 131 124 128 128 124 126 131 126 127 132 137 142 142 139 142 152 157 153 160 156 152 110 150 140 148